User: anonymous   Login
Location: Unspecified
(0.0000°N, 0.0000°E)
Time: 00:55:57
(UTC+00:00)
Language:

TIANQI 18 - Orbit

View from above orbital plane
View from above orbital plane
View from above satellite
View from above satellite

Ground track
Ground track

The orbit is defined by the following mean orbital elements,

1 64060U          26145.40211207 +.00000000 +00000-0 +56019-4 0 00009
2 64060  44.9831 123.5865 0012148 283.8982  76.0499 13.99127253    00
Epoch (UTC): 25 May 2026 09:39:02
Eccentricity: 0.0012148
inclination: 44.9831°
perigee height: 888 km
apogee height: 906 km
right ascension of ascending node: 123.5865°
argument of perigee: 283.8982°
revolutions per day: 13.99127253
mean anomaly at epoch: 76.0499°

The dashed part of the orbit path shows where the satellite is in the earth's shadow,  

DLR